Regional Weather Roundup
Issued by NWS

Home | Current Version | Previous Version | Graphics & Text | Print | Product List | Glossary On
Versions: 1 2 3 4 5 6 7 8 9 10 11 12 13 14 15 16 17 18 19 20 21 22 23 24 25 26 27 28 29 30 31 32 33 34 35 36 37 38 39 40 41 42 43 44 45 46 47 48 49 50
000
ASUS43 KDMX 160306
RWRIA

WEATHER ROUNDUP FOR IOWA
NATIONAL WEATHER SERVICE DES MOINES IA
900 PM CST FRI DEC 15 2017

NOTE: "FAIR" INDICATES FEW OR NO CLOUDS BELOW 12,000 FEET WITH NO
SIGNIFICANT WEATHER AND/OR OBSTRUCTIONS TO VISIBILITY.

* - THESE STATIONS ARE NOT NWS STATIONS...THUS NOT UNDER NWS
QUALITY CONTROL.  THEY ALSO DO NOT REPORT WEATHER SUCH
AS PRECIPITATION OR FOG.

IAZ001>003-012>014-020>022-031>034-043>046-160400-
   NORTHWEST IOWA

CITY           SKY/WX    TMP DP  RH WIND       PRES   REMARKS
CARROLL *      PTCLDY    36  25  64 S7        29.74F WCI  30
CHEROKEE *     PTCLDY    36  26  67 S6        29.69F WCI  31
DENISON *      CLOUDY    36  25  64 S9        29.75F WCI  29
LE MARS *      CLOUDY    36  28  75 S7        29.68F WCI  30
ORANGE CITY *  CLOUDY    37  30  75 S7        29.66F WCI  32
SHELDON *      CLOUDY    37  27  65 S12G18    29.64F WCI  30
SIOUX CITY     CLOUDY    39  27  62 S6        29.70F WCI  35
SPENCER        CLOUDY    38  25  59 SW12      29.66F WCI  30
STORM LAKE *   PTCLDY    36  25  64 SW12      29.70F WCI  27
$$

IAZ055>058-069>071-079>083-090>094-160400-
   SOUTHWEST IOWA

CITY           SKY/WX    TMP DP  RH WIND       PRES   REMARKS
ATLANTIC *     CLOUDY    34  25  69 S9        29.78F WCI  26
AUDUBON *      CLOUDY    37  27  65 S8        29.77F WCI  31
CLARINDA *       N/A     37  25  60 S9        29.83F WCI  31
COUNCIL BLFS * CLOUDY    39  25  56 SW12      29.77F WCI  32
CRESTON *      CLOUDY    34  23  64 S12       29.81F WCI  25
HARLAN  *      CLOUDY    34  25  69 S7        29.79F WCI  28
LAMONI         CLEAR     36  22  56 S14       29.83F WCI  27
RED OAK *      CLOUDY    34  25  69 S8        29.80F WCI  27
SHENANDOAH *   CLEAR     41  25  52 SW14      29.81F
$$

IAZ047>049-059>061-072>074-084-160400-
   CENTRAL IOWA

CITY           SKY/WX    TMP DP  RH WIND       PRES   REMARKS
AMES           CLOUDY    37  25  61 SW10      29.77F WCI  30
ANKENY *       CLOUDY    39  23  52 SW10      29.81F WCI  32
BOONE *        CLOUDY    39  25  56 SW12      29.75F WCI  32
CHARITON *     CLOUDY    36  21  55 S13       29.83F WCI  27
DES MOINES     CLOUDY    40  23  50 SW13      29.80F WCI  32
GRINNELL*      CLOUDY    37  22  56 SW12      29.82F WCI  29
KNOXVILLE *    CLOUDY    37  19  48 SW13G20   29.80F WCI  29
MARSHALLTOWN   CLOUDY    37  22  54 SW13      29.78F WCI  29
NEWTON *       CLOUDY    37  21  52 SW14      29.81F WCI  29
PELLA *        PTCLDY    38  21  50 S8        29.84F WCI  32
PERRY *          N/A     34  22  62 S12       29.77F WCI  25
$$

IAZ004>006-015-016-023>025-035-036-160400-
   NORTH CENTRAL IOWA

CITY           SKY/WX    TMP DP  RH WIND       PRES   REMARKS
ALGONA *       CLOUDY    36  25  64 S12       29.69F WCI  27
CLARION *      CLOUDY    36  25  64 S13       29.72F WCI  27
ESTHERVILLE    CLOUDY    37  25  61 SW14      29.66F WCI  28
FORT DODGE *   CLOUDY    37  24  59 SW13      29.73F WCI  29
MASON CITY     CLOUDY    34  23  64 S7        29.72F WCI  28
FOREST CITY *    N/A     36  27  69 S7        29.71F WCI  30
WEBSTER CITY * CLOUDY    36  25  64 S12       29.72F WCI  27
IOWA FALLS *     N/A     37  25  62 S10       29.76F WCI  29
$$

IAZ007>011-017>019-026>030-037>042-050>054-066-160400-
   NORTHEAST IOWA

CITY           SKY/WX    TMP DP  RH WIND       PRES   REMARKS
CEDAR RAPIDS   CLOUDY    38  22  52 SW15      29.82F WCI  29
CHARLES CITY * CLOUDY    36  25  64 S7        29.74F WCI  30
CLINTON *      CLOUDY    36  23  59 SW13      29.87F WCI  27
DECORAH *      CLOUDY    32  27  80 S5        29.74F WCI  27
DUBUQUE        CLOUDY    32  24  72 SW12      29.81F WCI  23
MONTICELLO *   CLOUDY    36  23  60 S6        29.82F WCI  31
OELWEIN *      CLOUDY    36  25  64 S10       29.77F WCI  28
WATERLOO       CLOUDY    36  22  56 S9        29.77F WCI  29
$$

IAZ064-065-067-068-078-160400-
   EAST CENTRAL IOWA

CITY           SKY/WX    TMP DP  RH WIND       PRES   REMARKS
DAVENPORT      CLOUDY    36  21  54 SW13      29.89F WCI  27
IOWA CITY      CLOUDY    39  23  52 S12       29.87F WCI  32
MT. PLEASANT * CLOUDY    36  21  54 S12       29.90F WCI  28
MUSCATINE *    CLOUDY    39  21  48 S15       29.89F WCI  31
QUAD CITIES    CLOUDY    37  21  52 SW14      29.88F WCI  28
$$

IAZ062-063-075>077-085>089-095>099-160400-
   SOUTHEAST IOWA

CITY           SKY/WX    TMP DP  RH WIND       PRES   REMARKS
BURLINGTON     CLOUDY    36  23  59 S13       29.91F WCI  27
FAIRFIELD *    CLOUDY    37  19  48 S14       29.87F WCI  29
FORT MADISON * CLOUDY    37  23  56 S10       29.92F WCI  30
KEOKUK *       CLOUDY    36  21  55 S9G16     29.92F WCI  29
OSKALOOSA *      N/A     37  22  54 SW14G21   29.85S WCI  28
OTTUMWA        CLOUDY    38  21  50 SW15      29.85F WCI  29
WASHINGTON *   CLOUDY    37  23  56 SW14      29.88F WCI  29
$$

ABBREVIATIONS USED IN REMARKS
   TC - TEMPERATURES IN CELSIUS
  WCI - WIND CHILL INDEX
   HX - HEAT INDEX
  VSB - VISIBILITY
$$





USA.gov is the U.S. government's official web portal to all federal, state and local government web resources and services.